| time (UTC) | temp C | wind direction | speed KPH | gust KPH | rain 1hr cm | rain 24hr cm | rain mn cm | humidity % | barometer mb |
| 20260510071638 | -17 | 63 | 0.0 | 0.0 | 0.00 | 0.00 | 0.00 | 1075.7 | |
| 20260510071130 | -17 | 64 | 0.0 | 0.0 | 0.00 | 0.00 | 0.00 | 1075.6 | |
| 20260510070610 | -17 | 64 | 0.0 | 0.0 | 0.00 | 0.00 | 0.00 | 1075.6 | |
| 20260510070049 | -17 | 64 | 0.0 | 0.0 | 0.00 | 0.00 | 0.00 | 1075.7 | |
| 20260510065533 | -17 | 64 | 0.0 | 0.0 | 0.00 | 0.00 | 0.00 | 1075.7 | |
| 20260510065031 | -17 | 64 | 0.0 | 0.0 | 0.00 | 0.00 | 0.00 | 1075.7 | |
| 20260510064525 | -17 | 64 | 0.0 | 0.0 | 0.00 | 0.00 | 0.00 | 1075.6 | |
| 20260510064253 | -17 | 347 | 0.0 | 0.0 | 0.00 | 0.00 | 0.00 | 1075.5 | |
| 20260510063521 | -17 | 68 | 0.0 | 0.0 | 0.00 | 0.00 | 0.00 | 1075.4 | |
| 20260510063017 | -17 | 66 | 0.0 | 0.0 | 0.00 | 0.00 | 0.00 | 1075.4 | |
| 20260510062732 | -17 | 64 | 0.0 | 0.0 | 0.00 | 0.00 | 0.00 | 1075.4 | |
| 20260510061935 | -17 | 68 | 0.0 | 0.0 | 0.00 | 0.00 | 0.00 | 1075.4 | |
| 20260510061431 | -17 | 71 | 0.0 | 0.0 | 0.00 | 0.00 | 0.00 | 1075.4 | |
| 20260510060425 | -17 | 74 | 0.0 | 0.0 | 0.00 | 0.00 | 0.00 | 1075.5 | |
| 20260510055919 | -17 | 75 | 0.0 | 0.0 | 0.00 | 0.00 | 0.00 | 1075.4 | |
| 20260510055344 | -17 | 77 | 0.0 | 0.0 | 0.00 | 0.00 | 0.00 | 1075.5 | |
| 20260510054834 | -17 | 75 | 0.0 | 0.0 | 0.00 | 0.00 | 0.00 | 1075.5 | |
| 20260510054332 | -17 | 74 | 0.0 | 0.0 | 0.00 | 0.00 | 0.00 | 1075.5 | |
| 20260510053825 | -17 | 347 | 0.0 | 0.0 | 0.00 | 0.00 | 0.00 | 1075.4 | |
| 20260510053323 | -17 | 347 | 0.0 | 0.0 | 0.00 | 0.00 | 0.00 | 1075.4 | |
| 20260510052745 | -17 | 92 | 0.0 | 0.0 | 0.00 | 0.00 | 0.00 | 1075.4 | |
| 20260510052235 | -17 | 92 | 0.0 | 0.0 | 0.00 | 0.00 | 0.00 | 1075.4 | |
| 20260510051730 | -17 | 92 | 0.0 | 0.0 | 0.00 | 0.00 | 0.00 | 1075.3 | |
| 20260510051229 | -17 | 92 | 0.0 | 0.0 | 0.00 | 0.00 | 0.00 | 1075.3 | |
| 20260510050729 | -17 | 69 | 0.0 | 0.0 | 0.00 | 0.00 | 0.00 | 1075.3 | |
| 20260510050229 | -17 | 73 | 0.0 | 0.0 | 0.00 | 0.00 | 0.00 | 1075.3 | |
| 20260510045936 | -17 | 69 | 0.0 | 0.0 | 0.00 | 0.00 | 0.00 | 1075.4 | |
| 20260510045405 | -17 | 68 | 0.0 | 0.0 | 0.00 | 0.00 | 0.00 | 1075.4 | |
| 20260510044633 | -17 | 65 | 0.0 | 0.0 | 0.00 | 0.00 | 0.00 | 1075.5 | |
| 20260510044135 | -17 | 63 | 0.0 | 0.0 | 0.00 | 0.00 | 0.00 | 1075.5 | |
| 20260510043634 | -17 | 63 | 0.0 | 0.0 | 0.00 | 0.00 | 0.00 | 1075.5 | |
| 20260510043120 | -17 | 65 | 0.0 | 0.0 | 0.00 | 0.00 | 0.00 | 1075.5 | |
| 20260510042618 | -17 | 70 | 0.0 | 0.0 | 0.00 | 0.00 | 0.00 | 1075.6 | |
| 20260510042101 | -17 | 57 | 0.0 | 0.0 | 0.00 | 0.00 | 0.00 | 1075.6 | |
| 20260510041827 | -17 | 65 | 0.0 | 0.0 | 0.00 | 0.00 | 0.00 | 1075.6 | |
| 20260510041048 | -17 | 62 | 0.0 | 0.0 | 0.00 | 0.00 | 0.00 | 1075.7 | |
| 20260510040539 | -17 | 62 | 0.0 | 0.0 | 0.00 | 0.00 | 0.00 | 1075.6 | |
| 20260510040033 | -17 | 62 | 0.0 | 0.0 | 0.00 | 0.00 | 0.00 | 1075.7 | |
| 20260510035529 | -17 | 113 | 0.0 | 0.0 | 0.00 | 0.00 | 0.00 | 1075.7 | |
| 20260510035006 | -17 | 92 | 0.0 | 0.0 | 0.00 | 0.00 | 0.00 | 1075.8 | |
| 20260510034448 | -17 | 65 | 0.0 | 0.0 | 0.00 | 0.00 | 0.00 | 1075.8 | |
| 20260510033944 | -17 | 66 | 0.0 | 0.0 | 0.00 | 0.00 | 0.00 | 1075.9 | |
| 20260510033436 | -17 | 67 | 0.0 | 0.0 | 0.00 | 0.00 | 0.00 | 1075.8 | |
| 20260510032934 | -17 | 67 | 0.0 | 0.0 | 0.00 | 0.00 | 0.00 | 1075.8 | |
| 20260510032427 | -17 | 73 | 0.0 | 0.0 | 0.00 | 0.00 | 0.00 | 1075.8 | |
| 20260510032154 | -17 | 71 | 0.0 | 0.0 | 0.00 | 0.00 | 0.00 | 1075.9 | |
| 20260510031421 | -17 | 63 | 0.0 | 0.0 | 0.00 | 0.00 | 0.00 | 1075.9 | |
| 20260510030922 | -17 | 61 | 0.0 | 0.0 | 0.00 | 0.00 | 0.00 | 1076.0 | |
| 20260510030422 | -17 | 81 | 0.0 | 0.0 | 0.00 | 0.00 | 0.00 | 1076.0 | |
| 20260510025853 | -17 | 104 | 0.0 | 0.0 | 0.00 | 0.00 | 0.00 | 1076.1 | |
| 20260510025336 | -17 | 117 | 0.0 | 0.0 | 0.00 | 0.00 | 0.00 | 1076.2 | |
| 20260510024830 | -17 | 123 | 0.0 | 0.0 | 0.00 | 0.00 | 0.00 | 1076.4 | |
| 20260510024322 | -17 | 125 | 0.0 | 0.0 | 0.00 | 0.00 | 0.00 | 1076.4 | |
| 20260510023744 | -17 | 125 | 0.0 | 0.0 | 0.00 | 0.00 | 0.00 | 1076.4 | |
| 20260509163059 | -17 | 62 | 0.0 | 0.0 | 0.00 | 0.00 | 0.00 | 1075.4 | |
| 20260509162548 | -17 | 62 | 0.0 | 0.0 | 0.00 | 0.00 | 0.00 | 1075.4 | |
| 20260509162038 | -17 | 62 | 0.0 | 0.0 | 0.00 | 0.00 | 0.00 | 1075.4 | |
| 20260509161502 | -17 | 62 | 0.0 | 0.0 | 0.00 | 0.00 | 0.00 | 1075.5 | |
| 20260509160947 | -17 | 62 | 0.0 | 0.0 | 0.00 | 0.00 | 0.00 | 1075.6 | |
| 20260509160439 | -17 | 62 | 0.0 | 0.0 | 0.00 | 0.00 | 0.00 | 1075.6 | |
| 20260509155852 | -17 | 62 | 0.0 | 0.0 | 0.00 | 0.00 | 0.00 | 1075.6 | |
| 20260509155345 | -17 | 62 | 0.0 | 0.0 | 0.00 | 0.00 | 0.00 | 1075.7 | |
| 20260509154802 | -17 | 62 | 0.0 | 0.0 | 0.00 | 0.00 | 0.00 | 1075.6 | |
| 20260509154248 | -17 | 62 | 0.0 | 0.0 | 0.00 | 0.00 | 0.00 | 1075.7 | |
| 20260509153748 | -17 | 62 | 0.0 | 0.0 | 0.00 | 0.00 | 0.00 | 1075.6 | |
| 20260509153240 | -17 | 62 | 0.0 | 0.0 | 0.00 | 0.00 | 0.00 | 1075.7 | |
| 20260509152648 | -17 | 68 | 0.0 | 0.0 | 0.00 | 0.00 | 0.00 | 1075.7 | |
| 20260509152126 | -17 | 68 | 0.0 | 0.0 | 0.00 | 0.00 | 0.00 | 1075.7 | |
| 20260509151546 | -17 | 68 | 0.0 | 0.0 | 0.00 | 0.00 | 0.00 | 1075.8 | |
| 20260509151047 | -17 | 68 | 0.0 | 0.0 | 0.00 | 0.00 | 0.00 | 1075.8 | |
| 20260509150542 | -17 | 68 | 0.0 | 0.0 | 0.00 | 0.00 | 0.00 | 1075.8 | |
| 20260509145948 | -17 | 119 | 0.0 | 0.0 | 0.00 | 0.00 | 0.00 | 1075.7 | |
| 20260509145446 | -17 | 121 | 0.0 | 0.0 | 0.00 | 0.00 | 0.00 | 1075.8 | |
| 20260509144922 | -17 | 124 | 0.0 | 0.0 | 0.00 | 0.00 | 0.00 | 1075.8 | |
| 20260509144351 | -17 | 124 | 0.0 | 0.0 | 0.00 | 0.00 | 0.00 | 1075.8 | |
| 20260509143847 | -17 | 124 | 0.0 | 0.0 | 0.00 | 0.00 | 0.00 | 1075.8 | |
| 20260509143618 | -17 | 124 | 0.0 | 0.0 | 0.00 | 0.00 | 0.00 | 1075.8 | |
| 20260509142823 | -17 | 124 | 0.0 | 0.0 | 0.00 | 0.00 | 0.00 | 1075.8 | |
| 20260509142527 | -17 | 124 | 0.0 | 0.0 | 0.00 | 0.00 | 0.00 | 1075.9 | |
| 20260509141752 | -17 | 124 | 0.0 | 0.0 | 0.00 | 0.00 | 0.00 | 1075.8 | |
| 20260509141254 | -17 | 124 | 0.0 | 0.0 | 0.00 | 0.00 | 0.00 | 1075.8 | |
| 20260509140750 | -17 | 124 | 0.0 | 0.0 | 0.00 | 0.00 | 0.00 | 1075.9 | |
| 20260509140251 | -17 | 125 | 0.0 | 0.0 | 0.00 | 0.00 | 0.00 | 1075.8 | |
| 20260509135752 | -17 | 124 | 0.0 | 0.0 | 0.00 | 0.00 | 0.00 | 1075.9 | |
| 20260509135455 | -17 | 124 | 0.0 | 0.0 | 0.00 | 0.00 | 0.00 | 1075.9 | |
| 20260509134718 | -17 | 126 | 0.0 | 0.0 | 0.00 | 0.00 | 0.00 | 1075.9 | |
| 20260509134154 | -17 | 127 | 0.0 | 0.0 | 0.00 | 0.00 | 0.00 | 1076.0 | |
| 20260509133650 | -17 | 127 | 0.0 | 0.0 | 0.00 | 0.00 | 0.00 | 1075.9 | |
| 20260509133146 | -17 | 127 | 0.0 | 0.0 | 0.00 | 0.00 | 0.00 | 1076.0 | |
| 20260509132646 | -17 | 126 | 0.0 | 0.0 | 0.00 | 0.00 | 0.00 | 1076.0 | |
| 20260509132143 | -17 | 126 | 0.0 | 0.0 | 0.00 | 0.00 | 0.00 | 1076.0 | |
| 20260509131616 | -17 | 126 | 0.0 | 0.0 | 0.00 | 0.00 | 0.00 | 1076.0 | |
| 20260509131319 | -17 | 126 | 0.0 | 0.0 | 0.00 | 0.00 | 0.00 | 1076.0 | |
| 20260509130544 | -17 | 126 | 0.0 | 0.0 | 0.00 | 0.00 | 0.00 | 1076.1 | |
| 20260509130018 | -17 | 126 | 0.0 | 0.0 | 0.00 | 0.00 | 0.00 | 1076.1 | |
| 20260509125451 | -17 | 126 | 0.0 | 0.0 | 0.00 | 0.00 | 0.00 | 1076.1 | |
| 20260509124951 | -17 | 127 | 0.0 | 0.0 | 0.00 | 0.00 | 0.00 | 1076.1 | |
| 20260509124446 | -17 | 127 | 0.0 | 0.0 | 0.00 | 0.00 | 0.00 | 1076.1 | |
| 20260509123948 | -17 | 116 | 0.0 | 0.0 | 0.00 | 0.00 | 0.00 | 1076.2 | |
| 20260509123446 | -17 | 116 | 0.0 | 0.0 | 0.00 | 0.00 | 0.00 | 1076.1 | |
| 20260509123204 | -17 | 116 | 0.0 | 0.0 | 0.00 | 0.00 | 0.00 | 1076.1 | |
| 20260509122346 | -17 | 117 | 0.0 | 0.0 | 0.00 | 0.00 | 0.00 | 1076.1 | |
| 20260509121804 | -17 | 117 | 0.0 | 0.0 | 0.00 | 0.00 | 0.00 | 1076.2 | |
| 20260509121255 | -17 | 117 | 0.0 | 0.0 | 0.00 | 0.00 | 0.00 | 1076.1 | |
| 20260509120753 | -17 | 123 | 0.0 | 0.0 | 0.00 | 0.00 | 0.00 | 1076.1 | |
| 20260509120520 | -17 | 160 | 0.0 | 0.0 | 0.00 | 0.00 | 0.00 | 1076.1 | |
| 20260509115742 | -17 | 160 | 0.0 | 0.0 | 0.00 | 0.00 | 0.00 | 1076.1 | |
| 20260509115210 | -17 | 160 | 0.0 | 0.0 | 0.00 | 0.00 | 0.00 | 1076.0 | |
| 20260509114648 | -17 | 160 | 0.0 | 0.0 | 0.00 | 0.00 | 0.00 | 1076.0 | |
| 20260509114137 | -17 | 160 | 0.0 | 0.0 | 0.00 | 0.00 | 0.00 | 1076.0 | |
| 20260509113636 | -17 | 160 | 0.0 | 0.0 | 0.00 | 0.00 | 0.00 | 1076.0 | |
| 20260509113128 | -17 | 160 | 0.0 | 0.0 | 0.00 | 0.00 | 0.00 | 1076.0 | |
| 20260509112628 | -17 | 160 | 0.0 | 0.0 | 0.00 | 0.00 | 0.00 | 1076.0 | |
| 20260509112051 | -17 | 160 | 0.0 | 0.0 | 0.00 | 0.00 | 0.00 | 1076.0 | |
| 20260509111543 | -17 | 160 | 0.0 | 0.0 | 0.00 | 0.00 | 0.00 | 1076.0 | |
| 20260509111040 | -17 | 160 | 0.0 | 0.0 | 0.00 | 0.00 | 0.00 | 1076.0 | |
| 20260509110452 | -17 | 160 | 0.0 | 0.0 | 0.00 | 0.00 | 0.00 | 1076.0 | |
| 20260509105950 | -17 | 160 | 0.0 | 0.0 | 0.00 | 0.00 | 0.00 | 1075.9 | |
| 20260509105708 | -17 | 160 | 0.0 | 0.0 | 0.00 | 0.00 | 0.00 | 1075.9 | |
| 20260509104854 | -17 | 160 | 0.0 | 0.0 | 0.00 | 0.00 | 0.00 | 1076.0 | |
| 20260509103828 | -17 | 160 | 0.0 | 0.0 | 0.00 | 0.00 | 0.00 | 1075.9 | |
| 20260509103254 | -17 | 160 | 0.0 | 0.0 | 0.00 | 0.00 | 0.00 | 1076.0 | |
| 20260509102748 | -17 | 160 | 0.0 | 0.0 | 0.00 | 0.00 | 0.00 | 1076.0 | |
| 20260509102249 | -17 | 160 | 0.0 | 0.0 | 0.00 | 0.00 | 0.00 | 1076.0 | |
| 20260509101728 | -17 | 160 | 0.0 | 0.0 | 0.00 | 0.00 | 0.00 | 1076.0 | |
| 20260509101151 | -17 | 160 | 0.0 | 0.0 | 0.00 | 0.00 | 0.00 | 1075.9 | |
| 20260509100648 | -17 | 160 | 0.0 | 0.0 | 0.00 | 0.00 | 0.00 | 1075.8 | |
| 20260509100137 | -17 | 130 | 0.0 | 0.0 | 0.00 | 0.00 | 0.00 | 1075.9 | |
| 20260509095633 | -17 | 127 | 0.0 | 0.0 | 0.00 | 0.00 | 0.00 | 1075.8 | |
| 20260509095052 | -17 | 96 | 0.0 | 0.0 | 0.00 | 0.00 | 0.00 | 1075.8 | |
| 20260509094535 | -17 | 133 | 0.0 | 0.0 | 0.00 | 0.00 | 0.00 | 1075.9 | |
| 20260509094022 | -17 | 144 | 0.0 | 0.0 | 0.00 | 0.00 | 0.00 | 1075.9 | |
| 20260509092914 | -17 | 144 | 0.0 | 0.0 | 0.00 | 0.00 | 0.00 | 1075.8 | |
| 20260509092409 | -17 | 143 | 0.0 | 0.0 | 0.00 | 0.00 | 0.00 | 1075.8 | |
| 20260509092140 | -17 | 129 | 0.0 | 0.0 | 0.00 | 0.00 | 0.00 | 1075.8 | |
| 20260509091406 | -17 | 151 | 0.0 | 0.0 | 0.00 | 0.00 | 0.00 | 1075.8 | |
| 20260509090852 | -17 | 153 | 0.0 | 0.0 | 0.00 | 0.00 | 0.00 | 1075.8 | |
| 20260509090620 | -17 | 152 | 0.0 | 0.0 | 0.00 | 0.00 | 0.00 | 1075.8 | |
| 20260509085848 | -17 | 152 | 0.0 | 0.0 | 0.00 | 0.00 | 0.00 | 1075.7 | |
| 20260509085341 | -17 | 152 | 0.0 | 0.0 | 0.00 | 0.00 | 0.00 | 1075.7 | |
| 20260509084831 | -17 | 152 | 0.0 | 0.0 | 0.00 | 0.00 | 0.00 | 1075.7 | |
| 20260509084256 | -17 | 152 | 0.0 | 0.0 | 0.00 | 0.00 | 0.00 | 1075.7 | |
| 20260509083748 | -17 | 150 | 0.0 | 0.0 | 0.00 | 0.00 | 0.00 | 1075.6 | |
| 20260509083248 | -17 | 150 | 0.0 | 0.0 | 0.00 | 0.00 | 0.00 | 1075.6 | |
| 20260509083015 | -17 | 150 | 0.0 | 0.0 | 0.00 | 0.00 | 0.00 | 1075.5 | |
| 20260509082447 | -17 | 150 | 0.0 | 0.0 | 0.00 | 0.00 | 0.00 | 1075.4 | |
| 20260509081656 | -17 | 161 | 0.0 | 0.0 | 0.00 | 0.00 | 0.00 | 1075.4 | |
| 20260509081150 | -17 | 163 | 0.0 | 0.0 | 0.00 | 0.00 | 0.00 | 1075.3 | |
| 20260509080643 | -17 | 163 | 0.0 | 0.0 | 0.00 | 0.00 | 0.00 | 1075.3 | |
| 20260509080125 | -17 | 152 | 0.0 | 0.0 | 0.00 | 0.00 | 0.00 | 1075.3 | |
| 20260509075610 | -17 | 149 | 0.0 | 0.0 | 0.00 | 0.00 | 0.00 | 1075.3 | |
| 20260509075107 | -17 | 140 | 0.0 | 0.0 | 0.00 | 0.00 | 0.00 | 1075.3 | |
| 20260509074555 | -17 | 150 | 0.0 | 0.0 | 0.00 | 0.00 | 0.00 | 1075.3 | |
| 20260509074011 | -17 | 148 | 0.0 | 0.0 | 0.00 | 0.00 | 0.00 | 1075.3 | |
| 20260509073509 | -17 | 105 | 0.0 | 0.0 | 0.00 | 0.00 | 0.00 | 1075.3 | |
| 20260509073222 | -17 | 105 | 0.0 | 0.0 | 0.00 | 0.00 | 0.00 | 1075.3 | |
| 20260509072442 | -17 | 109 | 0.0 | 0.0 | 0.00 | 0.00 | 0.00 | 1075.3 | |
| 20260509071920 | -17 | 110 | 0.0 | 0.0 | 0.00 | 0.00 | 0.00 | 1075.2 |